Probability
0 0 0 0 0 0 0 0 0 0 0 0 0 0 0 0 0 0 0 0 0 0 0 0 0 0 0 0 0 0 0 0 0 0 0 0 0 0 0 0 0 0 0
0 0 0 0 0 0 0 0 0 0 0 0 0 0 0 0 0 0 0 0 0 0 0 0 0 0 0 0 0 0 0 0 0 0 0 0 0 0 0 0 0 0 0
0 0 0 0 0 0 0 0 0 0 0 0 0 0 0 0 0 0 0 0 0 0 0 0 0 0 0 0 0 0 0 0 0 0 0 0 0 0 0 0 0 0 0
0 0 0 0 0 0 0 0 0 0 0 0 0 0 0 0 0 0 0 0 0 0 0 0 0 0 0 0 0 0 0 0 0 0 0 0 0 0 0 0 0 0 0
0 0 0 0 0 0 0 0 0 0 0 0 0 0 0 0 0 0 0 0 0 0 0 0 0 0 0 0 0 0 0 0 0 0 0 0 0 0 0 0 0 0 0
0 0 0 0 0 0 0 0 0 0 0 0 0 0 0 0 0 0 0 0 0 0 0 0 0 0 0 0 0 0 0 0 0 0 0 0 0 0 0 0 0 0 0
0 0 0 0 0 0 0 0 0 0 0 0 0 0 0 0 0 0 0 0 0 0 0 0 0 0 0 0 0 0 0 0 0 0 0 0 0 0 0 0 0 0 0
0 0 0 0 0 0 0 0 0 0 0 0 0 0 0 0 0 0 0 0 0 0 0 0 0 0 0 0 0 0 0 0 0 0 0 0 0 0 0 0 0 0 0
0 0 0 0 0 0 0 0 0 0 0 0 0 0 0 0 0 0 0 0 0 0 0 0 0 0 0 0 0 0 0 0 0 0 0 0 0 0 0 0 0 0 0
0 0 0 0 0 0 0 0 0 0 0 0 0 0 0 0 0 0 0 0 0 0 0 0 0 0 0 0 0 0 0 0 0 0 0 0 0 0 0 0 0 0 0
0 0 0 0 0 0 0 0 0 0 0 0 0 0 0 0 0 0 0 0 0 0 0 0 0 0 0 0 0 0 0 0 0 0 0 0 0 0 0 0 0 0 0
0 0 0 0 0 0 0 0 0 0 0 0 0 0 0 0 0 0 0 0 0 0 0 0 0 0 0 0 0 0 0 0 0 0 0 0 0 0 0 0 0 0 0
0 0 0 0 0 0 0 0 0 0 0 0 0 0 0 0 0 0 0 0 0 0 0 0 0 0 0 0 0 0 0 0 0 0 0 0 0 0 0 0 0 0 0
0 0 0 0 0 0 0 0 0 0 0 0 0 0 0 0 0 0 0 0 0 0 0 0 0 0 0 0 0 0 0 0 0 0 0 0 0 0 0 0 0 0 0
0 0 0 0 0 0 0 0 0 0 0 0 0 0 0 0 0 0 0 0 0 0 0 0 0 0 0 0 0 0 0 0 0 0 0 0 0 0 0 0 0 0 0
0 0 0 0 0 0 0 0 0 0 0 0 0 0 0 0 0 0 0 0 0 0 0 0 0 0 0 0 0 0 0 0 0 0 0 0 0 0 0 0 0 0 0
0 0 0 0 0 0 0 0 0 0 0 0 0 0 0 0 0 0 0 0 0 0 0 0 0 0 0 0 0 0 0 0 0 0 0 0 0 0 0 0 0 0 0
0 0 0 0 0 0 0 0 0 0 0 0 0 0 0 0 0 0 0 0 0 0 0 0 0 0 0 0 0 0 0 0 0 0 0 0 0 0 0 0 0 0 0
0 0 0 0 0 0 0 0 0 0 0 0 0 0 0 0 0 0 0 0 0 0 0 0 0 0 0 0 0 0 0 0 0 0 0 0 0 0 0 0 0 0 0
0 0 0 0 0 0 0 0 0 0 0 0 0 0 0 0 0 0 0 0 0 0 0 0 0 0 0 0 0 0 0 0 0 0 0 0 0 0 0 0 0 0 0
0 0 0 0 0 0 0 0 0 0 0 0 0 0 0 0 0 0 0 0 0 0 0 0 0 0 0 0 0 0 0 0 0 0 0 0 0 0 0 0 0 0 0
0 0 0 0 0 0 0 0 0 0 0 0 0 0 0 0 0 0 0 0 0 0 0 0 0 0 0 0 0 0 0 0 0 0 0 0 0 0 0 0 0 0 0
0 0 0 0 0 0 0 0 0 0 0 0 0 0 0 0 0 0 0 0 0 0 0 0 0 0 0 0 0 0 0 0 0 0 0 0 0 0 0 0 0 0 0
0 0 0 0 0 0 0 0 0 0 0 0 0 0 0 0 0 0 0 0 0 0 0 0 0 0 0 0 0 0 0 0 0 0 0 0 0 0 0 0 0 0 0
0 0 0 0 0 0 0 0 0 0 0 0 0 0 0 0 0 0 0 0 0 0 0 0 0 0 0 0 0 0 0 0 0 0 0 0 0 0 0 0 0 0 0
0 0 0 0 0 0 0 0 0 0 0 0 0 0 0 0 0 0 0 0 0 0 0 0 0 0 0 0 0 0 0 0 0 0 0 0 0 0 0 0 0 0 0
Wind_Speed
15 15 14 14 13 12 12 13 12 12 13 15 15 14 14 13 12 10 9 9 9 7 6 6 6 5 4 4 4 5 6 7 15 14 7 7 8 11 11 9 11 14 15
16 15 15 12 12 14 15 14 14 15 15 15 15 15 14 14 13 12 12 11 10 10 8 7 6 5 6 5 5 6 7 7 10 20 17 12 13 13 14 14 14 14 14
14 15 15 15 16 18 17 15 15 16 15 15 16 16 15 14 13 12 11 10 9 8 8 8 7 7 7 6 6 7 6 8 9 14 19 15 13 12 16 16 16 14 15
15 16 17 19 20 19 15 15 16 17 17 17 16 15 14 14 13 12 11 10 8 8 7 7 7 8 8 7 7 8 7 9 10 13 16 16 14 14 14 16 17 11 13
15 17 20 18 15 13 14 15 16 17 17 17 16 14 13 12 12 13 12 11 10 8 8 8 8 8 11 10 8 7 8 8 10 12 15 16 15 15 15 14 19 17 15
16 18 15 13 13 14 15 15 16 16 15 16 16 16 15 12 19 23 15 11 11 10 9 8 8 9 11 15 17 16 15 13 12 13 14 17 20 18 17 17 18 20 22
14 13 11 12 14 14 14 15 17 17 16 16 15 15 15 16 24 24 22 12 11 9 9 7 6 6 8 8 12 16 16 20 23 18 19 20 21 19 21 22 21 22 23
11 11 11 12 13 13 15 16 15 13 15 15 15 15 14 16 24 23 23 12 9 9 8 7 7 8 8 9 9 10 13 15 18 16 18 20 20 20 21 23 25 25 25
9 10 11 13 13 14 16 16 13 13 12 12 13 14 13 14 23 23 20 8 8 8 8 8 8 8 12 14 11 11 14 14 19 24 27 28 32 33 28 19 18 19 22
6 6 7 10 13 15 15 13 10 11 11 12 11 11 12 11 20 22 20 8 8 7 7 7 9 10 13 14 10 10 13 13 13 14 18 21 21 22 27 20 17 18 20
1 3 6 8 10 11 11 10 11 11 12 11 11 10 10 11 18 22 21 9 9 7 6 6 6 11 12 14 14 9 14 16 11 11 12 13 14 13 14 15 15 16 19
2 3 5 7 8 9 11 11 11 13 13 12 11 10 8 9 13 18 22 17 13 7 6 5 5 10 12 14 11 12 18 15 6 8 10 11 12 12 13 15 18 19 20
3 4 5 6 7 9 12 13 12 12 11 11 11 11 10 9 12 20 21 19 17 8 6 7 7 8 9 8 10 13 10 6 7 8 10 12 12 15 16 16 17 18 20
7 7 7 9 9 10 10 12 12 13 13 12 12 12 11 10 10 10 9 10 11 8 4 3 2 5 5 6 7 7 5 6 8 10 11 12 13 14 14 15 15 15 16
9 8 9 10 11 11 12 11 13 12 14 15 13 13 14 13 15 19 13 8 7 6 6 3 1 1 2 3 4 5 6 6 8 8 10 12 13 14 15 15 14 15 17
9 9 9 9 9 9 10 9 17 14 20 22 19 16 13 16 24 25 22 19 17 15 7 3 2 2 3 3 4 5 6 7 8 9 10 12 14 15 16 15 15 15 17
13 11 9 10 10 10 11 11 10 14 19 21 22 23 19 23 26 25 22 19 16 13 5 3 3 3 3 3 4 5 7 8 8 9 11 12 13 15 16 17 16 16 16
14 13 11 10 11 11 11 11 11 12 13 12 17 23 25 26 26 24 22 15 8 5 3 3 3 3 3 4 4 6 7 8 8 9 11 12 13 15 16 17 17 18 18
13 10 10 10 10 10 10 11 10 12 11 11 11 16 22 24 24 22 17 6 6 4 4 3 3 3 3 4 4 6 7 8 9 10 11 12 13 14 16 17 18 21 20
12 14 12 10 10 11 11 12 12 12 12 12 13 12 12 13 11 10 5 5 5 4 4 4 3 3 4 4 5 5 7 8 9 10 11 12 13 14 17 20 18 18 18
10 10 14 11 11 11 12 12 12 12 12 12 10 13 19 11 10 9 7 6 5 5 4 3 3 3 4 4 4 6 8 8 9 10 11 12 13 14 15 16 18 18 18
10 9 10 11 10 11 11 11 11 12 13 13 11 14 20 9 8 8 6 5 4 3 3 3 3 4 4 4 5 6 7 9 9 10 11 13 13 14 15 16 17 18 19
10 10 10 10 10 12 12 11 11 12 12 12 12 11 11 9 8 7 6 5 4 3 3 3 4 4 5 5 5 6 8 10 10 11 13 14 13 14 15 17 20 21 21
8 10 10 10 10 11 11 11 11 12 12 13 12 10 10 9 8 7 6 4 3 2 3 3 4 7 9 7 6 6 8 11 12 13 16 13 13 14 15 17 18 21 21
8 9 10 10 11 11 11 11 11 12 12 11 11 10 9 8 7 6 5 4 3 3 3 4 4 5 8 11 11 10 13 17 17 15 11 9 12 14 15 17 17 20 21
9 9 9 9 9 10 10 11 11 11 11 10 10 9 9 8 7 6 5 3 2 2 3 3 5 7 9 9 11 14 16 18 19 17 8 8 10 12 15 15 19 19 21
Wind_Direction
199 201 201 199 195 189 193 196 189 180 178 180 182 181 180 179 177 179 180 179 183 181 181 188 199 193 210 218 226 236 244 250 272 284 279 292 294 296 297 287 288 287 287
204 201 203 195 187 193 200 194 183 181 181 180 179 180 181 180 178 181 183 185 186 186 186 187 197 201 218 223 229 239 247 251 269 288 296 301 300 301 297 293 291 287 284
202 201 201 197 196 202 201 190 182 180 179 178 178 181 180 179 180 183 183 185 187 185 183 190 197 206 224 225 230 242 251 260 266 280 290 298 298 299 299 293 287 282 279
202 203 204 204 205 204 195 185 182 178 177 179 180 180 177 176 178 180 182 183 183 184 187 195 202 212 224 227 235 242 250 260 267 274 283 292 294 295 293 295 295 283 281
203 206 210 208 203 192 185 182 179 179 179 176 173 173 172 173 177 177 181 181 182 185 194 204 213 219 231 237 241 239 245 256 265 272 279 288 290 294 293 294 293 295 284
204 211 208 196 189 187 184 178 177 177 174 172 173 171 174 178 185 185 179 180 182 186 195 206 217 224 239 253 260 261 259 261 265 269 276 279 284 288 291 290 292 293 292
207 208 195 188 187 185 177 175 178 176 172 173 173 172 176 182 186 186 185 177 182 188 193 201 217 230 235 250 264 271 273 272 269 271 274 275 282 287 289 288 284 283 282
204 201 190 184 184 176 175 180 178 173 174 174 173 173 171 183 187 188 187 179 179 185 192 204 224 240 246 255 258 262 264 266 269 270 270 275 278 281 279 281 284 285 282
207 202 189 181 177 175 180 181 174 170 172 172 169 170 171 182 189 187 182 164 176 186 196 210 226 241 256 268 272 272 275 276 280 279 279 283 285 288 288 289 287 286 285
226 208 182 176 177 180 180 173 166 166 165 164 166 170 170 174 188 187 179 165 176 185 199 216 228 239 256 269 270 273 279 284 287 289 288 289 289 287 286 279 280 280 282
235 167 170 175 177 173 165 162 159 158 157 161 161 166 169 174 189 188 185 172 178 183 196 206 221 246 262 275 282 279 283 292 294 297 294 289 286 282 279 275 273 275 279
165 169 173 169 163 159 157 157 160 160 160 162 162 166 171 175 190 193 191 184 181 178 192 202 222 252 273 286 292 290 297 306 302 293 288 287 288 287 285 284 281 278 275
183 187 177 166 163 163 164 163 164 167 170 171 173 175 174 175 188 192 191 189 189 176 187 208 235 270 291 296 294 301 311 301 288 287 289 290 291 292 293 290 285 280 277
207 197 183 178 176 174 175 174 176 180 181 179 181 179 173 173 179 179 178 183 187 181 167 177 274 288 281 281 288 299 293 283 285 287 289 292 295 294 292 292 293 294 291
222 207 195 193 186 186 190 192 191 193 190 183 183 178 174 178 183 177 168 173 171 167 139 123 160 234 251 264 276 282 286 288 288 289 293 296 296 295 294 295 294 295 293
227 213 203 197 193 191 190 195 206 197 203 200 191 183 183 177 171 173 173 175 174 163 140 148 183 219 246 270 286 293 292 290 292 295 293 293 295 297 298 298 297 296 295
233 219 205 199 193 191 189 187 189 196 201 202 193 183 173 169 169 170 168 166 161 151 135 160 192 219 245 266 275 283 289 292 294 292 292 294 295 296 299 302 304 301 296
241 226 209 200 194 191 190 188 184 178 178 181 181 173 168 165 164 164 160 145 139 125 144 173 202 222 240 259 274 283 288 293 293 292 293 293 292 297 302 305 305 303 301
244 228 210 198 190 187 184 182 181 177 170 162 157 164 165 162 159 157 149 139 152 158 167 189 212 229 244 258 270 277 281 285 287 290 291 291 294 301 306 306 305 304 302
244 224 202 191 184 182 180 178 177 173 167 164 163 157 154 152 149 142 128 139 148 158 173 197 219 234 247 258 268 275 282 284 287 288 292 294 298 304 308 309 308 308 305
239 216 194 185 183 179 178 177 173 168 166 165 157 162 161 151 148 146 146 151 160 169 181 203 227 244 250 257 264 273 279 283 285 289 294 296 302 308 310 309 309 308 307
224 204 189 182 175 174 172 169 166 164 162 155 151 164 156 138 143 145 148 155 163 172 187 211 238 246 247 252 261 274 280 282 285 290 296 299 305 311 313 313 312 313 312
204 188 176 168 163 160 159 160 160 159 157 156 159 155 144 146 146 147 150 155 163 182 202 217 242 259 256 249 246 252 265 274 281 288 293 299 309 316 316 316 316 316 317
175 166 158 153 151 153 154 155 155 155 156 156 153 144 144 145 144 145 147 152 168 197 219 229 241 258 271 276 266 257 258 267 275 282 287 296 309 315 316 317 317 318 320
140 140 141 144 146 148 148 149 150 151 151 149 144 140 138 137 138 141 146 157 178 216 244 250 250 260 271 277 279 278 281 286 288 290 292 300 309 313 317 318 320 322 324
116 123 128 134 139 142 145 147 147 146 144 142 139 137 138 138 140 144 149 161 184 230 260 263 263 271 277 281 283 288 294 299 302 306 309 308 312 316 321 322 323 325 328